Time,TemperatureF,DewpointF,PressureIn,WindDirection,WindDirectionDegrees,WindSpeedMPH,WindSpeedGustMPH,Humidity,HourlyPrecipIn,Conditions,Clouds,dailyrainin,SoftwareType,DateUTC
2013-09-16 00:05:00,51.3,44.0,29.64,North,11,0.0,0.0,77,0.00,,,0.00,weatherlink.com 1.10,2013-09-16 07:05:00,
2013-09-16 00:20:00,51.1,44.0,29.65,North,6,0.0,0.0,77,0.00,,,0.00,weatherlink.com 1.10,2013-09-16 07:20:00,
2013-09-16 00:36:00,51.6,45.0,29.65,NE,46,0.0,0.0,77,0.00,,,0.00,weatherlink.com 1.10,2013-09-16 07:36:00,
2013-09-16 00:50:00,52.2,45.0,29.66,East,82,0.0,2.0,75,0.00,,,0.00,weatherlink.com 1.10,2013-09-16 07:50:00,
2013-09-16 01:05:00,52.6,45.0,29.66,North,11,0.0,0.0,74,0.00,,,0.00,weatherlink.com 1.10,2013-09-16 08:05:00,
2013-09-16 01:20:00,52.6,45.0,29.67,ENE,67,0.0,2.0,74,0.00,,,0.00,weatherlink.com 1.10,2013-09-16 08:20:00,
2013-09-16 01:35:00,52.7,45.0,29.67,ENE,68,0.0,3.0,74,0.00,,,0.00,weatherlink.com 1.10,2013-09-16 08:35:00,
2013-09-16 01:50:00,52.9,44.0,29.67,ENE,70,0.0,0.0,73,0.00,,,0.00,weatherlink.com 1.10,2013-09-16 08:50:00,
2013-09-16 02:05:00,52.9,45.0,29.67,ENE,70,0.0,0.0,74,0.00,,,0.00,weatherlink.com 1.10,2013-09-16 09:05:00,
2013-09-16 02:20:00,52.9,44.0,29.67,ENE,73,0.0,1.0,73,0.00,,,0.00,weatherlink.com 1.10,2013-09-16 09:20:00,
2013-09-16 02:35:00,52.4,44.0,29.67,ENE,74,0.0,0.0,74,0.00,,,0.00,weatherlink.com 1.10,2013-09-16 09:35:00,
2013-09-16 02:50:00,52.0,44.0,29.67,ENE,73,0.0,0.0,75,0.00,,,0.00,weatherlink.com 1.10,2013-09-16 09:50:00,
2013-09-16 03:05:00,51.7,44.0,29.68,ESE,111,1.0,1.0,75,0.00,,,0.00,weatherlink.com 1.10,2013-09-16 10:05:00,
2013-09-16 03:20:00,51.8,44.0,29.68,ESE,111,0.0,0.0,76,0.00,,,0.00,weatherlink.com 1.10,2013-09-16 10:20:00,
2013-09-16 03:35:00,51.6,45.0,29.68,ESE,111,0.0,0.0,77,0.00,,,0.00,weatherlink.com 1.10,2013-09-16 10:35:00,
2013-09-16 03:50:00,51.7,44.0,29.68,ESE,111,0.0,0.0,76,0.00,,,0.00,weatherlink.com 1.10,2013-09-16 10:50:00,
2013-09-16 04:05:00,51.0,44.0,29.68,ESE,114,0.0,0.0,77,0.00,,,0.00,weatherlink.com 1.10,2013-09-16 11:05:00,
2013-09-16 04:20:00,51.2,44.0,29.69,ESE,123,0.0,0.0,77,0.00,,,0.00,weatherlink.com 1.10,2013-09-16 11:20:00,
2013-09-16 04:35:00,51.8,44.0,29.69,ESE,123,0.0,0.0,76,0.00,,,0.00,weatherlink.com 1.10,2013-09-16 11:35:00,
2013-09-16 04:50:00,51.0,44.0,29.69,East,89,0.0,0.0,77,0.00,,,0.00,weatherlink.com 1.10,2013-09-16 11:50:00,
2013-09-16 05:05:00,50.9,44.0,29.69,East,89,0.0,0.0,78,0.00,,,0.00,weatherlink.com 1.10,2013-09-16 12:05:00,
2013-09-16 05:20:00,50.6,44.0,29.70,East,90,0.0,0.0,78,0.00,,,0.00,weatherlink.com 1.10,2013-09-16 12:20:00,
2013-09-16 05:36:00,49.6,44.0,29.71,ESE,117,0.0,0.0,80,0.00,,,0.00,weatherlink.com 1.10,2013-09-16 12:36:00,
2013-09-16 05:51:00,49.4,44.0,29.71,ESE,114,0.0,2.0,80,0.00,,,0.00,weatherlink.com 1.10,2013-09-16 12:51:00,
2013-09-16 06:06:00,49.5,44.0,29.71,SE,134,0.0,4.0,81,0.00,,,0.00,weatherlink.com 1.10,2013-09-16 13:06:00,
2013-09-16 06:21:00,50.9,44.0,29.72,SSE,159,0.0,0.0,77,0.00,,,0.00,weatherlink.com 1.10,2013-09-16 13:21:00,
2013-09-16 06:36:00,51.1,44.0,29.72,NNW,345,0.0,4.0,76,0.00,,,0.00,weatherlink.com 1.10,2013-09-16 13:36:00,
2013-09-16 06:51:00,51.2,44.0,29.73,NNE,13,0.0,4.0,75,0.00,,,0.00,weatherlink.com 1.10,2013-09-16 13:51:00,
2013-09-16 07:06:00,50.7,43.0,29.73,WNW,288,0.0,1.0,76,0.00,,,0.00,weatherlink.com 1.10,2013-09-16 14:06:00,
2013-09-16 07:21:00,50.3,43.0,29.73,WNW,291,0.0,0.0,77,0.00,,,0.00,weatherlink.com 1.10,2013-09-16 14:21:00,
2013-09-16 07:36:00,50.2,44.0,29.74,ENE,70,0.0,0.0,78,0.00,,,0.00,weatherlink.com 1.10,2013-09-16 14:36:00,
2013-09-16 07:51:00,50.4,44.0,29.75,East,88,0.0,0.0,78,0.00,,,0.00,weatherlink.com 1.10,2013-09-16 14:51:00,
2013-09-16 08:06:00,50.0,43.0,29.75,SSE,167,1.0,1.0,78,0.00,,,0.00,weatherlink.com 1.10,2013-09-16 15:06:00,
2013-09-16 08:21:00,51.2,44.0,29.75,SE,137,2.0,4.0,76,0.00,,,0.00,weatherlink.com 1.10,2013-09-16 15:21:00,
2013-09-16 08:36:00,52.5,44.0,29.75,SW,222,0.0,0.0,74,0.00,,,0.00,weatherlink.com 1.10,2013-09-16 15:36:00,
2013-09-16 08:51:00,53.7,44.0,29.76,West,269,0.0,0.0,71,0.00,,,0.00,weatherlink.com 1.10,2013-09-16 15:51:00,
2013-09-16 09:06:00,54.1,45.0,29.76,SW,219,0.0,0.0,71,0.00,,,0.00,weatherlink.com 1.10,2013-09-16 16:06:00,
2013-09-16 09:21:00,54.4,45.0,29.76,WNW,290,0.0,2.0,70,0.00,,,0.00,weatherlink.com 1.10,2013-09-16 16:21:00,
2013-09-16 09:36:00,54.6,45.0,29.77,WNW,297,0.0,2.0,69,0.00,,,0.00,weatherlink.com 1.10,2013-09-16 16:36:00,
2013-09-16 09:51:00,55.4,45.0,29.76,NNW,336,0.0,2.0,68,0.00,,,0.00,weatherlink.com 1.10,2013-09-16 16:51:00,
2013-09-16 10:06:00,57.1,45.0,29.77,NNE,20,0.0,4.0,65,0.00,,,0.00,weatherlink.com 1.10,2013-09-16 17:06:00,
2013-09-16 10:21:00,56.6,44.0,29.77,WNW,298,2.0,6.0,64,0.00,,,0.00,weatherlink.com 1.10,2013-09-16 17:21:00,
2013-09-16 10:36:00,57.4,44.0,29.77,WSW,243,0.0,6.0,62,0.00,,,0.00,weatherlink.com 1.10,2013-09-16 17:36:00,
2013-09-16 10:51:00,58.8,45.0,29.77,NNW,344,1.0,5.0,61,0.00,,,0.00,weatherlink.com 1.10,2013-09-16 17:51:00,
2013-09-16 11:06:00,60.5,45.0,29.77,NW,326,3.0,9.0,58,0.00,,,0.00,weatherlink.com 1.10,2013-09-16 18:06:00,
2013-09-16 11:21:00,59.6,45.0,29.78,WNW,295,0.0,7.0,59,0.00,,,0.00,weatherlink.com 1.10,2013-09-16 18:21:00,
2013-09-16 11:36:00,59.9,45.0,29.77,West,266,5.0,8.0,58,0.00,,,0.00,weatherlink.com 1.10,2013-09-16 18:36:00,
2013-09-16 11:51:00,61.1,46.0,29.78,WNW,294,5.0,9.0,57,0.00,,,0.00,weatherlink.com 1.10,2013-09-16 18:51:00,
2013-09-16 12:07:00,60.8,45.0,29.78,NW,307,5.0,7.0,57,0.00,,,0.00,weatherlink.com 1.10,2013-09-16 19:07:00,
2013-09-16 12:22:00,61.0,45.0,29.78,NW,316,3.0,8.0,57,0.00,,,0.00,weatherlink.com 1.10,2013-09-16 19:22:00,
2013-09-16 12:37:00,61.8,46.0,29.78,NW,318,0.0,10.0,56,0.00,,,0.00,weatherlink.com 1.10,2013-09-16 19:37:00,
2013-09-16 12:52:00,61.2,45.0,29.78,WNW,293,2.0,8.0,56,0.00,,,0.00,weatherlink.com 1.10,2013-09-16 19:52:00,
2013-09-16 13:07:00,60.6,45.0,29.78,NW,325,0.0,6.0,57,0.00,,,0.00,weatherlink.com 1.10,2013-09-16 20:07:00,
2013-09-16 13:22:00,62.5,45.0,29.78,NW,304,4.0,10.0,54,0.00,,,0.00,weatherlink.com 1.10,2013-09-16 20:22:00,
2013-09-16 13:37:00,63.2,45.0,29.77,WNW,290,3.0,10.0,52,0.00,,,0.00,weatherlink.com 1.10,2013-09-16 20:37:00,
2013-09-16 13:52:00,64.3,46.0,29.77,West,281,7.0,8.0,51,0.00,,,0.00,weatherlink.com 1.10,2013-09-16 20:52:00,
2013-09-16 14:07:00,63.7,45.0,29.77,West,263,4.0,10.0,51,0.00,,,0.00,weatherlink.com 1.10,2013-09-16 21:07:00,
2013-09-16 14:22:00,63.2,45.0,29.77,North,6,3.0,12.0,52,0.00,,,0.00,weatherlink.com 1.10,2013-09-16 21:22:00,
2013-09-16 14:37:00,64.7,45.0,29.76,NNE,22,0.0,8.0,49,0.00,,,0.00,weatherlink.com 1.10,2013-09-16 21:37:00,
2013-09-16 14:52:00,65.1,45.0,29.76,NNW,328,2.0,9.0,48,0.00,,,0.00,weatherlink.com 1.10,2013-09-16 21:52:00,
2013-09-16 15:07:00,65.4,44.0,29.76,North,349,4.0,8.0,47,0.00,,,0.00,weatherlink.com 1.10,2013-09-16 22:07:00,
2013-09-16 15:22:00,65.4,44.0,29.75,NNE,13,6.0,9.0,47,0.00,,,0.00,weatherlink.com 1.10,2013-09-16 22:22:00,
2013-09-16 15:37:00,65.8,44.0,29.75,WNW,296,7.0,8.0,46,0.00,,,0.00,weatherlink.com 1.10,2013-09-16 22:37:00,
2013-09-16 15:52:00,65.8,44.0,29.75,NNE,27,5.0,10.0,46,0.00,,,0.00,weatherlink.com 1.10,2013-09-16 22:52:00,
2013-09-16 16:07:00,66.6,44.0,29.75,NNW,332,4.0,9.0,44,0.00,,,0.00,weatherlink.com 1.10,2013-09-16 23:07:00,
2013-09-16 16:22:00,66.3,43.0,29.75,NW,318,4.0,8.0,43,0.00,,,0.00,weatherlink.com 1.10,2013-09-16 23:22:00,
2013-09-16 16:37:00,66.0,43.0,29.75,NNW,342,4.0,14.0,43,0.00,,,0.00,weatherlink.com 1.10,2013-09-16 23:37:00,
2013-09-16 16:52:00,66.1,43.0,29.75,WNW,295,4.0,10.0,43,0.00,,,0.00,weatherlink.com 1.10,2013-09-16 23:52:00,
2013-09-16 17:07:00,65.7,42.0,29.75,WNW,298,4.0,12.0,42,0.00,,,0.00,weatherlink.com 1.10,2013-09-17 00:07:00,
2013-09-16 17:22:00,65.6,42.0,29.75,NNW,331,5.0,9.0,42,0.00,,,0.00,weatherlink.com 1.10,2013-09-17 00:22:00,
2013-09-16 17:37:00,65.4,42.0,29.75,NNW,335,2.0,8.0,42,0.00,,,0.00,weatherlink.com 1.10,2013-09-17 00:37:00,
2013-09-16 17:52:00,64.8,42.0,29.75,NNW,336,3.0,9.0,44,0.00,,,0.00,weatherlink.com 1.10,2013-09-17 00:52:00,
2013-09-16 18:07:00,63.7,42.0,29.75,NNW,330,5.0,10.0,45,0.00,,,0.00,weatherlink.com 1.10,2013-09-17 01:07:00,
2013-09-16 18:22:00,63.3,41.0,29.76,NW,319,8.0,10.0,45,0.00,,,0.00,weatherlink.com 1.10,2013-09-17 01:22:00,
2013-09-16 18:37:00,62.9,43.0,29.76,NNW,328,3.0,8.0,48,0.00,,,0.00,weatherlink.com 1.10,2013-09-17 01:37:00,
2013-09-16 18:52:00,61.4,42.0,29.75,NNW,335,3.0,9.0,50,0.00,,,0.00,weatherlink.com 1.10,2013-09-17 01:52:00,
2013-09-16 19:07:00,59.9,43.0,29.75,NNW,342,6.0,6.0,53,0.00,,,0.00,weatherlink.com 1.10,2013-09-17 02:07:00,
2013-09-16 19:22:00,57.9,43.0,29.76,NNW,338,1.0,9.0,58,0.00,,,0.00,weatherlink.com 1.10,2013-09-17 02:22:00,
2013-09-16 19:37:00,56.6,43.0,29.76,NNW,330,0.0,4.0,60,0.00,,,0.00,weatherlink.com 1.10,2013-09-17 02:37:00,
2013-09-16 19:52:00,55.5,42.0,29.77,North,359,0.0,2.0,61,0.00,,,0.00,weatherlink.com 1.10,2013-09-17 02:52:00,
2013-09-16 20:07:00,54.7,43.0,29.77,NW,316,1.0,4.0,64,0.00,,,0.00,weatherlink.com 1.10,2013-09-17 03:07:00,
2013-09-16 20:22:00,54.2,43.0,29.77,North,354,1.0,7.0,65,0.00,,,0.00,weatherlink.com 1.10,2013-09-17 03:22:00,
2013-09-16 20:37:00,53.6,42.0,29.78,North,6,1.0,5.0,66,0.00,,,0.00,weatherlink.com 1.10,2013-09-17 03:37:00,
2013-09-16 20:52:00,52.8,42.0,29.78,NNE,23,1.0,3.0,68,0.00,,,0.00,weatherlink.com 1.10,2013-09-17 03:52:00,
2013-09-16 21:07:00,52.4,42.0,29.78,NNW,347,3.0,4.0,69,0.00,,,0.00,weatherlink.com 1.10,2013-09-17 04:07:00,
2013-09-16 21:22:00,52.2,43.0,29.78,NNW,332,0.0,4.0,71,0.00,,,0.00,weatherlink.com 1.10,2013-09-17 04:22:00,
2013-09-16 21:37:00,51.1,43.0,29.78,WNW,294,0.0,0.0,73,0.00,,,0.00,weatherlink.com 1.10,2013-09-17 04:37:00,
2013-09-16 21:52:00,50.6,43.0,29.78,North,351,0.0,1.0,74,0.00,,,0.00,weatherlink.com 1.10,2013-09-17 04:52:00,
2013-09-16 22:07:00,50.1,42.0,29.78,North,355,0.0,0.0,75,0.00,,,0.00,weatherlink.com 1.10,2013-09-17 05:07:00,
2013-09-16 22:22:00,49.7,43.0,29.78,North,355,0.0,0.0,77,0.00,,,0.00,weatherlink.com 1.10,2013-09-17 05:22:00,
2013-09-16 22:37:00,49.2,43.0,29.77,North,356,0.0,0.0,78,0.00,,,0.00,weatherlink.com 1.10,2013-09-17 05:37:00,
2013-09-16 22:52:00,48.3,42.0,29.77,North,355,0.0,0.0,80,0.00,,,0.00,weatherlink.com 1.10,2013-09-17 05:52:00,
2013-09-16 23:07:00,47.6,42.0,29.76,North,355,0.0,0.0,82,0.00,,,0.00,weatherlink.com 1.10,2013-09-17 06:07:00,
2013-09-16 23:22:00,47.5,42.0,29.77,North,354,0.0,0.0,82,0.00,,,0.00,weatherlink.com 1.10,2013-09-17 06:22:00,
2013-09-16 23:37:00,47.5,43.0,29.77,SE,125,0.0,0.0,83,0.00,,,0.00,weatherlink.com 1.10,2013-09-17 06:37:00,
2013-09-16 23:52:00,47.6,42.0,29.76,SSE,163,0.0,1.0,81,0.00,,,0.00,weatherlink.com 1.10,2013-09-17 06:52:00,